SCP
0 0 0 0 0 0 0 0 0 0 0 0 0 0 0 0 0 0 0 0 0 0 0 0 0 0 0 0 0 0 0 0 0 0 0 0 0 0 0 0 0 0 0 0 0 0 0 0 0 0 0 0 0 0
0 0 0 0 0 0 0 0 0 0 0 0 0 0 0 0 0 0 0 0 0 0 0 0 0 0 0 0 0 0 0 0 0 0 0 0 0 0 0 0 0 0 0 0 0 0 0 0 0 0 0 0 0 0
0 0 0 0 0 0 0 0 0 0 0 0 0 0 0 0 0 0 0 0 0 0 0 0 0 0 0 0 0 0 0 0 0 0 0 0 0 0 0 0 0 0 0 0 0 0 0 0 0 0 0 0 0 0
0 0 0 0 0 0 0 0 0 0 0 0 0 0 0 0 0 0 0 0 0 0 0 0 0 0 0 0 0 0 0 0 0 0 0 0 0 0 0 0 0 0 0 0 0 0 0 0 0 0 0 0 0 0
0 0 0 0 0 0 0 0 0 0 0 0 0 0 0 0 0 0 0 0 0 0 0 0 0 0 0 0 0 0 0 0 0 0 0 0 0 0 0 0 0 0 0 0 0 0 0 0 0 0 0 0 0 0
0 0 0 0 0 0 0 0 0 0 0 0 0 0 0 0 0 0 0 0 0 0 0 0 0 0 0 0 0 0 0 0 0 0 0 0 0 0 0 0 0 0 0 0 0 0 0 0 0 0 0 0 0 0
0 0 0 0 0 0 0 0 0 0 0 0 0 0 0 0 0 0 0 0 0 0 0 0 0 0 0 0 0 0 0 0 0 0 0 0 0 0 0 0 0 0 0 0 0 0 0 0 0 0 0 0 0 0
0 0 0 0 0 0 0 0 0 0 0 0 0 0 0 0 0 0 0 0 0 0 0 0 0 0 0 0 0 0 0 0 0 0 0 0 0 0 0 0 0 0 0 0 0 0 0 0 0 0 0 0 0 0
0 0 0 0 0 0 0 0 0 0 0 0 0 0 0 0 0 0 0 0 0 0 0 0 0 0 0 0 0 0 0 0 0 0 0 0 0 0 0 0 0 0 0 0 0 0 0 0 0 0 0 0 0 0
0 0 0 0 0 0 0 0 0 0 0 0 0 0 0 0 0 0 0 0 0 0 0 0 0 0 0 0 0 0 0 0 0 0 0 0 0 0 0 0 0 0 0 0 0 0 0 0 0 0 0 0 0 0
0 0 0 0 0 0 0 0 0 0 0 0 0 0 0 0 0 0 0 0 0 0 0 0 0 0 0 0 0 0 0 0 0 0 0 0 0 0 0 0 0 0 0 0 0 0 0 0 0 0 0 0 0 0
0 0 0 0 0 0 0 0 0 0 0 0 0 0 0 0 0 0 0 0 0 0 0 0 0 0 0 0 0 0 0 0 0 0 0 0 0 0 0 0 0 0 0 0 0 0 0 0 0 0 0 0 0 0
0 0 0 0 0 0 0 0 0 0 0 0 0 0 0 0 0 0 0 0 0 0 0 0 0 0 0 0 0 0 0 0 0 0 0 0 0 0 0 0 0 0 0 0 0 0 0 0 0 0 0 0 0 0
0 0 0 0 0 0 0 0 0 0 0 0 0 0 0 0 0 0 0 0 0 0 0 0 0 0 0 0 0 0 0 0 0 0 0 0 0 0 0 0 0 0 0 0 0 0 0 0 0 0 0 0 0 0
0 0 0 0 0 0 0 0 0 0 0 0 0 0 0 0 0 0 0 0 0 0 0 0 0 0 0 0 0 0 0 0 0 0 0 0 0 0 0 0 0 0 0 0 0 0 0 0 0 0 0 0 0 0
0 0 0 0 0 0 0 0 0 0 0 0 0 0 0 0 0 0 0 0 0 0 0 0 0 0 0 0 0 0 0 0 0 0 0 0 0 0 0 0 0 0 0 0 0 0 0 0 0 0 0 0 0 0
0 0 0 0 0 0 0 0 0 0 0 0 0 0 0 0 0 0 0 0 0 0 0 0 0 0 0 0 0 0 0 0 0 0 0 0 0 0 0 0 0 0 0 0 0 0 0 0 0 0 0 0 0 0
0 0 0 0 0 0 0 0 0 0 0 0 0 0 0 0 0 0 0 0 0 0 0 0 0 0 0 0 0 0 0 0 0 0 0 0 0 0 0 0 0 0 0 0 0 0 0 0 0 0 0 0 0 0
0 0 0 0 0 0 0 0 0 0 0 0 0 0 0 0 0 0 0 0 0 0 0 0 0 0 0 0 0 0 0 0 0 0 0 0 0 0 0 0 0 0 0 0 0 0 0 0 0 0 0 0 0 0
0 0 0 0 0 0 0 0 0 0 0 0 0 0 0 0 0 0 0 0 0 0 0 0 0 0 0 0 0 0 0 0 0 0 0 0 0 0 0 0 0 0 0 0 0 0 0 0 0 0 0 0 0 0
0 0 0 0 0 0 0 0 0 0 0 0 0 0 0 0 0 0 -0 -0 -0 0 0 0 0 0 0 0 0 0 0 0 0 0 0 0 0 0 0 0 0 0 0 0 0 0 0 0 0 0 0 0 0 0
0 0 0 0 0 0 0 0 0 0 0 0 0 0 0 0 0 0 0 -0 0 0 0 0 0 0 0 0 0 0 0 0 0 0 0 0 0 0 0 0 0 0 0 0 0 0 0 0 0 0 0 0 0 0
0 0 0 0 0 0 0 0 -0 -0 -0 0 0 0 0 0 0 0 0 0 0 0 0 0 0 0 0 0 0 0 0 0 0 0 0 0 0 0 0 0 0 0 0 0 0 0 0 0 0 0 0 0 0 0
0 -0 0 0 0 0 -0 -0 0 0 -0 -0 -0 0 0 0 0 0 0 0 0 0 0 0 0 0 0 0 0 0 0 0 0 0 0 0 0 0 0 0 0 0 0 0 0 0 0 0 0 0 0 0 0 0
-0 -0 0 0 0 0 0 0 0 0 -0 -0 0 0 -0 0 0 0 0 0 0 0 0 0 0 0 0 0 0 0 0 0 0 0 0 0 0 0 0 0 0 0 0 0 0 0 0 0 0 0 0 0 0 0
0 0 0 0 0 0 0 0 0 0 0 -0 0 0 0 0 0 0 0 0 0 0 0 0 0 0 0 0 0 0 0 0 0 0 0 0 0 0 0 0 0 0 0 0 0 0 0 0 0 0 0 0 0 0
0 0 0 0 0 0 -0 -0 -0 -0 0 0 0 0 0 0 -0 0 0 0 0 0 0 0 0 0 0 0 0 0 0 0 0 0 0 0 0 0 0 0 0 0 0 0 0 0 0 0 0 0 0 0 0 0
0 -0 0 -0 0 0 -0 -0 0 0 -0 -0 0 -0 0 0 -0 -0 0 0 0 0 0 0 0 0 0 0 0 0 0 0 0 0 0 0 0 0 0 0 0 0 0 0 0 0 0 0 0 0 0 0 0 0
0 0 0 -0 -0 -0 -0 -0 -0 -0 0 0 0 0 0 0 0 0 0 0 0 0 0 0 0 0 0 0 0 0 0 0 0 0 0 0 0 0 0 0 0 0 0 0 0 0 0 0 0 0 0 0 0 0
-0 0 -0 0 -0 -0 0 0 0 0 0 0 -0 -0 -0 -0 0 0 0 0 0 0 0 0 0 0 0 0 0 0 0 0 0 0 0 0 0 0 0 0 0 0 0 0 0 0 0 0 0 0 0 0 0 0
0 0 0 0 0 0 0 0 0 0 0 0 0 0 0 0 0 0 0 0 0 0 0 0 0 0 0 0 0 0 0 0 0 0 0 0 0 0 0 0 0 0 0 0 0 0 0 0 0 0 0 0 0 0
0 0 0 0 0 0 0 0 0 0 0 0 0 0 0 0 0 0 0 0 0 0 0 0 0 0 0 0 0 0 0 0 0 0 0 0 0 0 0 0 0 0 0 0 0 0 0 0 0 0 0 0 0 0
0 0 0 0 0 0 0 0 0 0 0 0 0 0 0 0 0 0 0 0 0 0 0 0 0 0 0 0 0 0 0 0 0 0 0 0 0 0 0 0 0 0 0 0 0 0 0 0 0 0 0 0 0 0
Wind_Speed_500mb
13 16 18 22 24 26 27 24 24 21 18 15 12 12 14 16 28 21 14 7 9 8 21 30 13 10 8 18 13 18 14 3 3 8 8 8 7 11 8 9 19 26 17 9 6 7 22 12 10 17 4 6 5 5
11 15 17 20 25 26 26 24 21 19 15 14 11 9 6 1 8 30 14 15 18 14 10 23 35 36 24 16 31 15 5 9 9 9 6 8 6 5 9 8 0 9 16 16 20 12 11 25 12 11 4 4 4 7
19 15 16 20 21 22 22 23 22 21 17 14 12 11 8 6 5 7 31 19 27 16 22 22 23 35 32 32 27 16 6 15 8 9 8 5 9 5 8 7 8 5 4 7 8 6 5 14 24 7 4 5 6 4
19 17 15 18 17 20 20 20 21 21 19 16 14 12 11 6 4 10 29 21 20 15 6 13 28 35 32 33 34 31 36 23 28 18 9 6 7 2 5 6 6 4 13 10 5 7 3 3 14 20 10 3 4 6
15 15 18 19 20 23 21 18 15 16 17 13 12 12 9 7 9 9 20 23 18 7 7 7 24 32 23 29 37 44 46 37 17 7 7 3 6 7 1 3 1 9 8 7 7 11 7 6 8 6 7 7 2 3
16 16 19 19 22 24 19 15 17 14 13 14 12 10 11 12 13 12 7 10 18 21 12 5 7 17 35 38 36 38 34 27 16 13 6 7 6 5 5 3 5 10 11 6 10 16 12 12 10 12 13 11 7 2
14 16 17 21 21 19 16 10 10 10 16 14 16 12 11 9 6 6 5 14 13 18 11 5 2 4 15 22 25 29 26 19 14 8 7 8 5 5 5 4 3 12 17 17 15 12 5 3 4 5 6 7 10 11
21 23 23 16 15 13 6 3 6 11 11 20 15 13 13 13 15 18 13 19 11 13 10 6 2 5 7 10 9 13 10 8 15 6 6 6 5 4 3 4 6 14 13 10 11 5 3 4 9 16 18 20 18 16
14 12 10 9 8 7 6 4 4 10 14 19 19 20 20 13 5 13 18 12 17 14 9 6 6 5 8 8 8 7 8 6 5 3 3 5 4 2 3 5 5 10 11 6 2 6 5 0 13 17 15 12 11 13
12 12 12 10 9 3 4 6 5 12 16 22 25 5 8 10 23 16 4 5 8 12 8 4 4 5 8 5 6 5 11 4 3 4 3 6 4 6 22 16 15 13 8 8 7 10 6 4 9 10 11 12 16 19
8 9 8 8 10 10 4 6 3 13 18 25 9 5 34 25 7 9 8 10 10 7 10 5 7 6 6 6 4 5 3 3 5 5 6 2 4 6 16 8 12 13 10 5 6 4 2 4 7 8 10 13 15 18
6 8 5 2 7 9 11 2 5 21 20 20 15 37 15 6 9 10 3 6 7 5 3 3 7 9 10 7 6 6 6 5 3 2 6 2 1 14 15 9 10 8 4 6 7 8 8 8 10 12 14 17 19 22
9 7 3 2 7 10 9 4 9 24 36 41 10 8 3 8 14 10 0 7 2 5 4 5 6 8 8 9 10 6 8 2 3 4 5 6 4 14 20 14 5 11 6 2 5 9 12 13 14 15 15 15 14 15
11 11 6 4 8 8 10 7 30 44 33 8 5 7 7 5 3 7 8 7 3 0 15 19 11 6 6 7 3 9 3 1 5 2 8 1 16 21 18 17 11 10 10 8 6 5 4 3 3 5 7 9 11 13
12 7 5 5 3 9 10 8 32 34 9 9 5 5 3 5 12 9 10 7 8 16 10 13 12 9 6 7 5 6 8 1 8 7 3 16 20 21 17 15 13 10 10 10 11 11 13 13 11 11 12 14 17 19
15 13 12 9 8 10 7 7 33 16 11 11 17 8 8 6 6 12 17 12 12 9 11 12 6 8 6 6 7 5 10 9 4 0 10 16 15 17 17 15 13 12 11 11 11 11 13 12 11 11 12 15 15 17
15 17 11 8 6 4 14 46 14 17 14 11 11 23 13 14 12 11 12 15 10 9 3 6 9 9 1 7 5 2 5 2 6 7 13 17 18 18 18 18 16 13 12 10 9 9 10 12 14 14 13 16 19 21
15 10 12 9 5 29 16 17 17 16 19 22 11 12 29 23 13 20 15 18 10 8 6 4 9 8 6 8 5 3 8 10 6 10 14 17 22 20 18 16 17 18 16 17 17 17 16 15 16 19 21 23 25 27
13 12 13 19 29 7 13 17 15 16 16 10 14 20 22 20 37 30 19 16 21 20 9 9 12 5 2 5 5 10 15 17 15 20 19 7 17 23 20 18 16 16 18 17 17 20 23 25 26 27 29 31 33 34
10 11 28 19 8 10 15 18 16 18 11 11 16 17 12 13 17 26 32 23 19 12 22 11 3 3 6 11 12 13 15 19 24 21 3 6 11 20 19 17 16 16 18 21 25 26 27 30 34 35 36 36 36 36
17 20 24 26 41 35 22 14 19 15 11 12 11 12 12 19 22 27 28 29 20 16 9 10 14 13 13 10 10 12 14 16 18 18 22 21 19 23 21 19 20 21 21 22 23 26 31 34 35 36 37 37 37 36
26 26 27 31 23 19 22 29 14 9 9 9 11 14 16 12 18 23 22 29 14 12 12 18 21 17 12 9 10 12 14 16 17 17 20 25 26 21 18 22 20 19 21 23 24 26 26 28 31 33 33 32 31 29
20 22 22 25 16 20 11 16 11 15 9 10 7 10 9 10 17 18 14 12 9 18 23 23 21 18 13 10 12 14 15 16 16 17 17 19 20 22 22 23 22 21 16 19 19 20 20 21 22 24 26 26 24 22
23 19 23 21 29 9 9 16 13 12 10 8 7 6 8 13 18 11 5 5 16 20 22 25 21 16 13 14 13 15 17 19 20 22 21 19 16 16 19 18 20 22 23 23 22 22 24 25 26 26 27 28 28 28
14 31 20 18 21 16 14 11 16 12 8 8 6 7 7 14 5 6 3 10 24 26 26 22 22 22 19 15 16 20 22 23 23 20 22 24 23 21 22 27 27 25 26 27 27 29 29 30 29 29 29 30 30 31
19 28 16 21 17 11 5 8 9 6 5 9 5 13 10 5 8 2 5 19 22 30 30 27 25 19 14 21 22 19 21 25 26 25 22 23 27 29 27 27 24 25 26 28 28 29 30 31 30 30 30 31 33 35
14 11 17 22 11 6 11 8 5 10 9 8 6 13 5 8 4 5 15 20 29 31 30 29 29 29 28 24 22 23 25 27 28 28 26 28 28 28 28 28 27 27 28 31 34 35 33 32 33 34 36 33 34 38
16 25 9 25 15 17 7 8 8 6 4 9 8 8 6 5 4 12 13 23 24 24 24 24 23 24 24 24 24 24 22 25 27 29 27 26 24 25 26 26 28 29 29 31 34 35 36 37 38 39 41 42 40 37
14 29 15 15 9 14 14 6 4 5 13 4 2 3 3 3 8 13 16 19 21 23 23 21 22 24 26 27 27 27 26 26 28 26 26 27 26 25 27 29 31 33 37 37 36 41 43 45 45 48 49 50 48 47
18 31 11 10 8 6 10 11 11 11 10 7 3 2 2 2 7 11 16 23 29 25 25 25 27 27 28 28 25 22 28 29 27 29 34 34 35 35 36 38 41 41 45 49 48 45 45 51 53 55 58 61 61 60
20 21 11 11 5 8 14 16 10 10 8 7 6 5 7 9 8 13 23 23 33 30 25 22 23 30 33 34 37 40 37 36 37 38 42 45 46 45 44 45 46 48 50 53 54 54 54 56 57 59 60 61 60 61
19 17 10 7 3 13 10 20 10 7 7 6 5 9 8 7 7 16 27 27 35 33 20 26 35 35 38 39 39 41 47 48 44 46 51 57 59 58 58 59 59 60 61 63 64 65 65 67 69 69 70 70 68 68
10 12 8 8 5 5 11 19 5 9 6 4 4 7 7 6 5 11 26 31 42 35 20 27 38 44 41 42 44 45 45 47 50 53 56 59 62 63 63 63 62 62 63 65 67 68 70 71 74 75 76 77 77 77
Wind_Direction_500mb
164 148 124 130 144 148 152 158 166 154 144 141 132 142 179 157 189 171 105 153 81 82 32 33 39 139 144 129 147 155 106 241 68 106 137 190 129 204 102 164 166 178 169 177 155 201 252 203 95 175 241 79 335 67
147 149 136 134 126 135 136 148 158 165 160 156 160 142 145 116 110 179 132 99 111 79 71 45 56 61 98 142 130 135 96 144 156 106 82 101 104 127 140 189 139 152 189 194 191 193 221 196 183 222 6 148 165 127
84 147 146 132 133 139 131 126 131 145 152 156 165 168 154 134 174 176 171 113 115 82 55 45 9 51 87 104 145 128 125 160 117 101 132 128 115 133 156 228 102 270 171 190 109 266 211 207 218 266 231 154 158 198
84 90 150 146 137 148 148 135 126 133 133 124 123 148 148 130 136 173 171 123 114 93 76 27 49 38 45 70 108 154 142 142 131 106 80 97 120 233 196 139 137 187 135 155 303 290 90 173 224 227 223 211 234 243
109 86 90 120 144 130 133 146 141 139 146 136 120 118 124 113 76 110 153 143 124 104 123 78 58 48 69 104 75 94 112 109 97 69 61 93 131 121 347 84 324 185 169 172 221 177 118 131 86 119 212 246 303 28
136 113 109 105 115 122 135 153 177 170 155 145 139 121 100 118 117 113 96 118 122 124 98 64 51 53 80 119 99 84 83 57 82 102 92 92 101 114 95 176 279 174 139 92 147 134 104 124 124 128 136 145 144 159
119 121 122 110 99 95 96 106 141 169 194 177 158 146 124 126 154 76 99 143 121 114 101 98 29 69 75 63 72 87 96 72 55 74 68 96 55 71 92 144 41 158 133 93 107 136 118 154 320 331 351 345 344 336
94 90 89 99 111 124 145 169 133 152 161 184 167 156 146 127 100 73 86 149 96 94 89 105 359 60 78 46 52 41 83 79 34 89 106 102 131 61 100 254 93 120 157 146 158 193 206 241 271 278 297 312 319 328
109 110 110 110 87 135 156 154 158 154 157 160 170 151 137 131 77 103 89 90 60 66 108 89 128 163 117 81 71 69 52 63 359 76 54 74 343 121 24 48 130 86 69 79 161 213 240 222 88 80 73 61 38 14
123 111 84 63 62 56 198 192 179 142 150 164 147 128 97 130 118 109 74 70 38 29 54 100 127 105 101 80 51 54 29 49 73 329 49 59 244 56 39 62 73 78 66 58 64 104 110 95 83 69 57 35 13 359
139 130 115 80 70 34 348 230 237 140 163 158 122 81 129 113 78 41 48 49 352 25 23 59 74 102 70 94 133 46 132 4 82 265 106 26 312 39 5 33 37 53 69 94 124 119 42 343 344 353 351 351 347 343
181 156 138 46 21 37 18 339 157 161 167 172 129 128 108 68 65 76 348 341 47 200 12 98 91 92 91 87 93 23 100 43 181 240 84 19 270 4 7 24 36 14 313 278 283 288 295 305 322 327 325 322 320 317
150 155 166 290 5 17 20 321 174 170 151 143 104 95 90 1 47 92 202 314 333 213 177 141 75 76 85 76 68 77 73 204 160 73 206 216 17 359 8 17 45 29 29 339 279 284 294 304 309 310 312 314 315 309
134 121 117 32 3 325 317 259 169 169 145 92 112 64 107 338 222 177 185 178 76 185 126 106 71 77 69 54 106 85 257 12 55 109 234 321 353 346 354 360 1 14 24 34 49 72 75 80 90 61 32 20 11 1
129 134 126 48 320 306 297 259 183 163 104 101 76 96 59 118 61 72 68 83 40 123 109 97 65 71 25 83 43 102 41 266 199 221 287 346 339 339 343 353 2 18 43 67 81 88 89 88 83 66 46 30 16 6
134 126 65 343 276 290 288 193 155 103 71 63 50 71 30 71 14 48 44 61 87 99 82 64 83 57 37 113 65 197 119 211 251 238 330 340 345 343 348 357 3 19 41 56 67 67 63 58 52 38 26 16 4 354
122 74 30 322 335 307 151 145 136 69 63 49 45 45 59 60 63 45 47 30 42 14 82 94 68 200 104 48 28 25 183 264 334 349 351 3 10 11 8 360 356 6 22 25 36 39 29 20 11 359 345 347 345 341
98 47 7 7 93 132 99 60 70 67 63 50 68 29 53 58 59 47 39 34 28 52 27 97 123 60 126 138 281 339 10 349 332 333 358 9 13 7 9 7 359 350 7 2 358 358 0 356 349 346 346 342 338 334
54 20 5 62 118 96 66 50 52 88 68 78 60 52 61 66 54 47 49 60 67 67 88 42 60 59 60 9 342 0 352 356 333 319 314 315 351 359 353 351 354 344 348 350 344 338 336 334 333 334 333 330 326 323
65 25 40 50 70 87 72 44 50 74 71 57 45 39 58 51 45 40 46 54 58 47 44 41 74 355 318 333 322 329 338 336 335 347 12 294 314 333 335 334 336 339 341 344 339 337 331 328 325 321 318 317 318 317
78 46 67 73 60 61 73 50 62 64 74 70 33 45 53 45 36 29 23 22 55 40 48 40 5 349 335 337 336 339 340 336 334 333 322 320 325 326 333 329 326 324 327 324 318 315 313 312 311 310 309 307 307 307
48 65 58 49 58 62 62 37 62 62 63 64 43 34 39 29 14 11 4 44 57 34 10 352 353 350 345 332 339 338 338 335 328 324 322 323 328 323 316 315 312 309 309 306 305 304 304 306 308 307 306 305 305 304
45 50 50 36 65 49 38 29 53 29 59 17 33 42 25 28 12 1 67 57 60 5 4 0 354 344 342 333 336 335 331 331 325 319 316 318 321 320 324 322 324 323 324 321 322 323 323 322 321 318 314 309 307 304
46 48 32 37 32 36 25 34 38 38 53 31 42 30 8 356 359 58 70 52 359 358 355 349 353 357 348 342 332 328 328 330 329 328 322 320 322 315 319 319 319 326 330 330 327 325 321 318 317 315 314 312 311 309
65 17 25 9 17 29 30 16 1 25 46 339 45 26 359 353 54 50 34 346 356 3 359 354 345 341 341 345 338 333 329 327 327 329 323 321 318 319 316 317 317 320 319 318 319 317 311 307 307 310 310 309 307 305
66 22 38 4 11 43 344 44 22 9 9 23 357 323 344 39 54 343 282 337 347 352 354 353 352 349 344 333 334 331 323 320 320 320 316 314 313 314 316 315 311 313 312 309 308 307 305 303 304 303 303 302 303 302
48 350 22 24 10 27 65 68 57 58 48 16 325 345 1 57 4 302 338 355 349 350 352 352 351 348 345 347 339 333 328 325 325 326 322 317 314 312 310 311 311 308 308 307 307 304 304 305 304 302 301 300 300 299
53 24 36 349 26 32 100 50 41 23 294 345 314 22 102 166 241 340 342 351 356 357 355 353 354 352 351 350 347 344 338 331 329 327 328 325 320 317 315 312 311 309 306 302 301 302 302 301 300 299 299 299 299 297
29 355 4 18 35 45 44 62 3 2 347 317 156 271 309 8 359 7 9 7 4 2 1 -0 353 353 348 348 343 340 336 333 329 329 327 328 327 325 319 313 309 306 304 303 302 302 301 300 299 298 298 299 298 296
4 6 14 20 59 19 21 12 347 334 349 358 317 316 308 7 19 7 6 9 7 358 353 352 353 354 352 348 348 347 335 332 328 325 322 324 320 318 313 309 305 304 300 300 300 296 291 291 291 291 292 293 295 296
356 359 8 29 64 18 358 359 350 1 7 3 5 313 301 306 322 357 4 0 1 355 353 354 347 340 340 337 332 329 332 329 322 316 312 312 311 309 306 302 299 297 296 295 295 295 295 292 291 290 290 291 292 293
359 7 5 10 0 345 348 351 332 322 329 338 343 347 330 314 315 351 356 352 352 353 342 345 344 341 333 328 325 320 317 316 313 308 305 305 304 304 301 298 296 294 292 291 291 292 292 291 291 292 292 292 293 293
330 350 354 332 315 333 339 340 323 332 267 276 287 313 323 303 276 345 356 354 354 347 331 334 336 336 332 329 327 322 318 315 312 309 308 305 304 304 302 301 300 297 295 293 292 292 291 291 291 291 292 292 293 293
Wind_Speed_850mb
13 16 18 22 24 26 27 24 24 21 18 15 12 12 14 16 28 21 14 7 9 8 21 30 13 10 8 18 13 18 14 3 3 8 8 8 7 11 8 9 19 26 17 9 6 7 22 12 10 17 4 6 5 5
11 15 17 20 25 26 26 24 21 19 15 14 11 9 6 1 8 30 14 15 18 14 10 23 35 36 24 16 31 15 5 9 9 9 6 8 6 5 9 8 0 9 16 16 20 12 11 25 12 11 4 4 4 7
19 15 16 20 21 22 22 23 22 21 17 14 12 11 8 6 5 7 31 19 27 16 22 22 23 35 32 32 27 16 6 15 8 9 8 5 9 5 8 7 8 5 4 7 8 6 5 14 24 7 4 5 6 4
19 17 15 18 17 20 20 20 21 21 19 16 14 12 11 6 4 10 29 21 20 15 6 13 28 35 32 33 34 31 36 23 28 18 9 6 7 2 5 6 6 4 13 10 5 7 3 3 14 20 10 3 4 6
15 15 18 19 20 23 21 18 15 16 17 13 12 12 9 7 9 9 20 23 18 7 7 7 24 32 23 29 37 44 46 37 17 7 7 3 6 7 1 3 1 9 8 7 7 11 7 6 8 6 7 7 2 3
16 16 19 19 22 24 19 15 17 14 13 14 12 10 11 12 13 12 7 10 18 21 12 5 7 17 35 38 36 38 34 27 16 13 6 7 6 5 5 3 5 10 11 6 10 16 12 12 10 12 13 11 7 2
14 16 17 21 21 19 16 10 10 10 16 14 16 12 11 9 6 6 5 14 13 18 11 5 2 4 15 22 25 29 26 19 14 8 7 8 5 5 5 4 3 12 17 17 15 12 5 3 4 5 6 7 10 11
21 23 23 16 15 13 6 3 6 11 11 20 15 13 13 13 15 18 13 19 11 13 10 6 2 5 7 10 9 13 10 8 15 6 6 6 5 4 3 4 6 14 13 10 11 5 3 4 9 16 18 20 18 16
14 12 10 9 8 7 6 4 4 10 14 19 19 20 20 13 5 13 18 12 17 14 9 6 6 5 8 8 8 7 8 6 5 3 3 5 4 2 3 5 5 10 11 6 2 6 5 0 13 17 15 12 11 13
12 12 12 10 9 3 4 6 5 12 16 22 25 5 8 10 23 16 4 5 8 12 8 4 4 5 8 5 6 5 11 4 3 4 3 6 4 6 22 16 15 13 8 8 7 10 6 4 9 10 11 12 16 19
8 9 8 8 10 10 4 6 3 13 18 25 9 5 34 25 7 9 8 10 10 7 10 5 7 6 6 6 4 5 3 3 5 5 6 2 4 6 16 8 12 13 10 5 6 4 2 4 7 8 10 13 15 18
6 8 5 2 7 9 11 2 5 21 20 20 15 37 15 6 9 10 3 6 7 5 3 3 7 9 10 7 6 6 6 5 3 2 6 2 1 14 15 9 10 8 4 6 7 8 8 8 10 12 14 17 19 22
9 7 3 2 7 10 9 4 9 24 36 41 10 8 3 8 14 10 0 7 2 5 4 5 6 8 8 9 10 6 8 2 3 4 5 6 4 14 20 14 5 11 6 2 5 9 12 13 14 15 15 15 14 15
11 11 6 4 8 8 10 7 30 44 33 8 5 7 7 5 3 7 8 7 3 0 15 19 11 6 6 7 3 9 3 1 5 2 8 1 16 21 18 17 11 10 10 8 6 5 4 3 3 5 7 9 11 13
12 7 5 5 3 9 10 8 32 34 9 9 5 5 3 5 12 9 10 7 8 16 10 13 12 9 6 7 5 6 8 1 8 7 3 16 20 21 17 15 13 10 10 10 11 11 13 13 11 11 12 14 17 19
15 13 12 9 8 10 7 7 33 16 11 11 17 8 8 6 6 12 17 12 12 9 11 12 6 8 6 6 7 5 10 9 4 0 10 16 15 17 17 15 13 12 11 11 11 11 13 12 11 11 12 15 15 17
15 17 11 8 6 4 14 46 14 17 14 11 11 23 13 14 12 11 12 15 10 9 3 6 9 9 1 7 5 2 5 2 6 7 13 17 18 18 18 18 16 13 12 10 9 9 10 12 14 14 13 16 19 21
15 10 12 9 5 29 16 17 17 16 19 22 11 12 29 23 13 20 15 18 10 8 6 4 9 8 6 8 5 3 8 10 6 10 14 17 22 20 18 16 17 18 16 17 17 17 16 15 16 19 21 23 25 27
13 12 13 19 29 7 13 17 15 16 16 10 14 20 22 20 37 30 19 16 21 20 9 9 12 5 2 5 5 10 15 17 15 20 19 7 17 23 20 18 16 16 18 17 17 20 23 25 26 27 29 31 33 34
10 11 28 19 8 10 15 18 16 18 11 11 16 17 12 13 17 26 32 23 19 12 22 11 3 3 6 11 12 13 15 19 24 21 3 6 11 20 19 17 16 16 18 21 25 26 27 30 34 35 36 36 36 36
17 20 24 26 41 35 22 14 19 15 11 12 11 12 12 19 22 27 28 29 20 16 9 10 14 13 13 10 10 12 14 16 18 18 22 21 19 23 21 19 20 21 21 22 23 26 31 34 35 36 37 37 37 36
26 26 27 31 23 19 22 29 14 9 9 9 11 14 16 12 18 23 22 29 14 12 12 18 21 17 12 9 10 12 14 16 17 17 20 25 26 21 18 22 20 19 21 23 24 26 26 28 31 33 33 32 31 29
20 22 22 25 16 20 11 16 11 15 9 10 7 10 9 10 17 18 14 12 9 18 23 23 21 18 13 10 12 14 15 16 16 17 17 19 20 22 22 23 22 21 16 19 19 20 20 21 22 24 26 26 24 22
23 19 23 21 29 9 9 16 13 12 10 8 7 6 8 13 18 11 5 5 16 20 22 25 21 16 13 14 13 15 17 19 20 22 21 19 16 16 19 18 20 22 23 23 22 22 24 25 26 26 27 28 28 28
14 31 20 18 21 16 14 11 16 12 8 8 6 7 7 14 5 6 3 10 24 26 26 22 22 22 19 15 16 20 22 23 23 20 22 24 23 21 22 27 27 25 26 27 27 29 29 30 29 29 29 30 30 31
19 28 16 21 17 11 5 8 9 6 5 9 5 13 10 5 8 2 5 19 22 30 30 27 25 19 14 21 22 19 21 25 26 25 22 23 27 29 27 27 24 25 26 28 28 29 30 31 30 30 30 31 33 35
14 11 17 22 11 6 11 8 5 10 9 8 6 13 5 8 4 5 15 20 29 31 30 29 29 29 28 24 22 23 25 27 28 28 26 28 28 28 28 28 27 27 28 31 34 35 33 32 33 34 36 33 34 38
16 25 9 25 15 17 7 8 8 6 4 9 8 8 6 5 4 12 13 23 24 24 24 24 23 24 24 24 24 24 22 25 27 29 27 26 24 25 26 26 28 29 29 31 34 35 36 37 38 39 41 42 40 37
14 29 15 15 9 14 14 6 4 5 13 4 2 3 3 3 8 13 16 19 21 23 23 21 22 24 26 27 27 27 26 26 28 26 26 27 26 25 27 29 31 33 37 37 36 41 43 45 45 48 49 50 48 47
18 31 11 10 8 6 10 11 11 11 10 7 3 2 2 2 7 11 16 23 29 25 25 25 27 27 28 28 25 22 28 29 27 29 34 34 35 35 36 38 41 41 45 49 48 45 45 51 53 55 58 61 61 60
20 21 11 11 5 8 14 16 10 10 8 7 6 5 7 9 8 13 23 23 33 30 25 22 23 30 33 34 37 40 37 36 37 38 42 45 46 45 44 45 46 48 50 53 54 54 54 56 57 59 60 61 60 61
19 17 10 7 3 13 10 20 10 7 7 6 5 9 8 7 7 16 27 27 35 33 20 26 35 35 38 39 39 41 47 48 44 46 51 57 59 58 58 59 59 60 61 63 64 65 65 67 69 69 70 70 68 68
10 12 8 8 5 5 11 19 5 9 6 4 4 7 7 6 5 11 26 31 42 35 20 27 38 44 41 42 44 45 45 47 50 53 56 59 62 63 63 63 62 62 63 65 67 68 70 71 74 75 76 77 77 77
Wind_Direction_850mb
164 148 124 130 144 148 152 158 166 154 144 141 132 142 179 157 189 171 105 153 81 82 32 33 39 139 144 129 147 155 106 241 68 106 137 190 129 204 102 164 166 178 169 177 155 201 252 203 95 175 241 79 335 67
147 149 136 134 126 135 136 148 158 165 160 156 160 142 145 116 110 179 132 99 111 79 71 45 56 61 98 142 130 135 96 144 156 106 82 101 104 127 140 189 139 152 189 194 191 193 221 196 183 222 6 148 165 127
84 147 146 132 133 139 131 126 131 145 152 156 165 168 154 134 174 176 171 113 115 82 55 45 9 51 87 104 145 128 125 160 117 101 132 128 115 133 156 228 102 270 171 190 109 266 211 207 218 266 231 154 158 198
84 90 150 146 137 148 148 135 126 133 133 124 123 148 148 130 136 173 171 123 114 93 76 27 49 38 45 70 108 154 142 142 131 106 80 97 120 233 196 139 137 187 135 155 303 290 90 173 224 227 223 211 234 243
109 86 90 120 144 130 133 146 141 139 146 136 120 118 124 113 76 110 153 143 124 104 123 78 58 48 69 104 75 94 112 109 97 69 61 93 131 121 347 84 324 185 169 172 221 177 118 131 86 119 212 246 303 28
136 113 109 105 115 122 135 153 177 170 155 145 139 121 100 118 117 113 96 118 122 124 98 64 51 53 80 119 99 84 83 57 82 102 92 92 101 114 95 176 279 174 139 92 147 134 104 124 124 128 136 145 144 159
119 121 122 110 99 95 96 106 141 169 194 177 158 146 124 126 154 76 99 143 121 114 101 98 29 69 75 63 72 87 96 72 55 74 68 96 55 71 92 144 41 158 133 93 107 136 118 154 320 331 351 345 344 336
94 90 89 99 111 124 145 169 133 152 161 184 167 156 146 127 100 73 86 149 96 94 89 105 359 60 78 46 52 41 83 79 34 89 106 102 131 61 100 254 93 120 157 146 158 193 206 241 271 278 297 312 319 328
109 110 110 110 87 135 156 154 158 154 157 160 170 151 137 131 77 103 89 90 60 66 108 89 128 163 117 81 71 69 52 63 359 76 54 74 343 121 24 48 130 86 69 79 161 213 240 222 88 80 73 61 38 14
123 111 84 63 62 56 198 192 179 142 150 164 147 128 97 130 118 109 74 70 38 29 54 100 127 105 101 80 51 54 29 49 73 329 49 59 244 56 39 62 73 78 66 58 64 104 110 95 83 69 57 35 13 359
139 130 115 80 70 34 348 230 237 140 163 158 122 81 129 113 78 41 48 49 352 25 23 59 74 102 70 94 133 46 132 4 82 265 106 26 312 39 5 33 37 53 69 94 124 119 42 343 344 353 351 351 347 343
181 156 138 46 21 37 18 339 157 161 167 172 129 128 108 68 65 76 348 341 47 200 12 98 91 92 91 87 93 23 100 43 181 240 84 19 270 4 7 24 36 14 313 278 283 288 295 305 322 327 325 322 320 317
150 155 166 290 5 17 20 321 174 170 151 143 104 95 90 1 47 92 202 314 333 213 177 141 75 76 85 76 68 77 73 204 160 73 206 216 17 359 8 17 45 29 29 339 279 284 294 304 309 310 312 314 315 309
134 121 117 32 3 325 317 259 169 169 145 92 112 64 107 338 222 177 185 178 76 185 126 106 71 77 69 54 106 85 257 12 55 109 234 321 353 346 354 360 1 14 24 34 49 72 75 80 90 61 32 20 11 1
129 134 126 48 320 306 297 259 183 163 104 101 76 96 59 118 61 72 68 83 40 123 109 97 65 71 25 83 43 102 41 266 199 221 287 346 339 339 343 353 2 18 43 67 81 88 89 88 83 66 46 30 16 6
134 126 65 343 276 290 288 193 155 103 71 63 50 71 30 71 14 48 44 61 87 99 82 64 83 57 37 113 65 197 119 211 251 238 330 340 345 343 348 357 3 19 41 56 67 67 63 58 52 38 26 16 4 354
122 74 30 322 335 307 151 145 136 69 63 49 45 45 59 60 63 45 47 30 42 14 82 94 68 200 104 48 28 25 183 264 334 349 351 3 10 11 8 360 356 6 22 25 36 39 29 20 11 359 345 347 345 341
98 47 7 7 93 132 99 60 70 67 63 50 68 29 53 58 59 47 39 34 28 52 27 97 123 60 126 138 281 339 10 349 332 333 358 9 13 7 9 7 359 350 7 2 358 358 0 356 349 346 346 342 338 334
54 20 5 62 118 96 66 50 52 88 68 78 60 52 61 66 54 47 49 60 67 67 88 42 60 59 60 9 342 0 352 356 333 319 314 315 351 359 353 351 354 344 348 350 344 338 336 334 333 334 333 330 326 323
65 25 40 50 70 87 72 44 50 74 71 57 45 39 58 51 45 40 46 54 58 47 44 41 74 355 318 333 322 329 338 336 335 347 12 294 314 333 335 334 336 339 341 344 339 337 331 328 325 321 318 317 318 317
78 46 67 73 60 61 73 50 62 64 74 70 33 45 53 45 36 29 23 22 55 40 48 40 5 349 335 337 336 339 340 336 334 333 322 320 325 326 333 329 326 324 327 324 318 315 313 312 311 310 309 307 307 307
48 65 58 49 58 62 62 37 62 62 63 64 43 34 39 29 14 11 4 44 57 34 10 352 353 350 345 332 339 338 338 335 328 324 322 323 328 323 316 315 312 309 309 306 305 304 304 306 308 307 306 305 305 304
45 50 50 36 65 49 38 29 53 29 59 17 33 42 25 28 12 1 67 57 60 5 4 0 354 344 342 333 336 335 331 331 325 319 316 318 321 320 324 322 324 323 324 321 322 323 323 322 321 318 314 309 307 304
46 48 32 37 32 36 25 34 38 38 53 31 42 30 8 356 359 58 70 52 359 358 355 349 353 357 348 342 332 328 328 330 329 328 322 320 322 315 319 319 319 326 330 330 327 325 321 318 317 315 314 312 311 309
65 17 25 9 17 29 30 16 1 25 46 339 45 26 359 353 54 50 34 346 356 3 359 354 345 341 341 345 338 333 329 327 327 329 323 321 318 319 316 317 317 320 319 318 319 317 311 307 307 310 310 309 307 305
66 22 38 4 11 43 344 44 22 9 9 23 357 323 344 39 54 343 282 337 347 352 354 353 352 349 344 333 334 331 323 320 320 320 316 314 313 314 316 315 311 313 312 309 308 307 305 303 304 303 303 302 303 302
48 350 22 24 10 27 65 68 57 58 48 16 325 345 1 57 4 302 338 355 349 350 352 352 351 348 345 347 339 333 328 325 325 326 322 317 314 312 310 311 311 308 308 307 307 304 304 305 304 302 301 300 300 299
53 24 36 349 26 32 100 50 41 23 294 345 314 22 102 166 241 340 342 351 356 357 355 353 354 352 351 350 347 344 338 331 329 327 328 325 320 317 315 312 311 309 306 302 301 302 302 301 300 299 299 299 299 297
29 355 4 18 35 45 44 62 3 2 347 317 156 271 309 8 359 7 9 7 4 2 1 -0 353 353 348 348 343 340 336 333 329 329 327 328 327 325 319 313 309 306 304 303 302 302 301 300 299 298 298 299 298 296
4 6 14 20 59 19 21 12 347 334 349 358 317 316 308 7 19 7 6 9 7 358 353 352 353 354 352 348 348 347 335 332 328 325 322 324 320 318 313 309 305 304 300 300 300 296 291 291 291 291 292 293 295 296
356 359 8 29 64 18 358 359 350 1 7 3 5 313 301 306 322 357 4 0 1 355 353 354 347 340 340 337 332 329 332 329 322 316 312 312 311 309 306 302 299 297 296 295 295 295 295 292 291 290 290 291 292 293
359 7 5 10 0 345 348 351 332 322 329 338 343 347 330 314 315 351 356 352 352 353 342 345 344 341 333 328 325 320 317 316 313 308 305 305 304 304 301 298 296 294 292 291 291 292 292 291 291 292 292 292 293 293
330 350 354 332 315 333 339 340 323 332 267 276 287 313 323 303 276 345 356 354 354 347 331 334 336 336 332 329 327 322 318 315 312 309 308 305 304 304 302 301 300 297 295 293 292 292 291 291 291 291 292 292 293 293